This is the latest recevied weather packets stored in our database for station/object KI5GCD-13. If no packets are shown the sender has not sent any weather packets the latest 10 day(s).
| Time | Temp. | Humidity | Pressure | Rain* | Wind** | Luminosity | Snow |
|---|---|---|---|---|---|---|---|
| 1777399487 | 17.78° C | 94% | 1006.9 hPa | 0 mm | 0.45 m/s, 163° | - | - |
| 1777399187 | 17.22° C | 94% | 1007.1 hPa | 0 mm | 0.45 m/s, 222° | - | - |
| 1777398887 | 17.22° C | 94% | 1006.7 hPa | 0 mm | 0.89 m/s, 240° | - | - |
| 1777398587 | 17.22° C | 94% | 1007.6 hPa | 0 mm | 0 m/s | - | - |
| 1777398287 | 17.78° C | 94% | 1008.4 hPa | 0 mm | 0.89 m/s, 162° | - | - |
| 1777397988 | 17.22° C | 94% | 1008.4 hPa | 0 mm | 0 m/s | - | - |
| 1777397687 | 17.22° C | 94% | 1008.4 hPa | 0 mm | 0.45 m/s, 222° | - | - |
| 1777397387 | 17.22° C | 94% | 1008.5 hPa | 0 mm | 0 m/s | - | - |
| 1777397087 | 17.22° C | 94% | 1008.6 hPa | 0 mm | 0 m/s | - | - |
| 1777396787 | 17.22° C | 94% | 1008.6 hPa | 0 mm | 0 m/s | - | - |
| 1777396487 | 17.22° C | 93% | 1009.1 hPa | 0 mm | 0.45 m/s, 247° | - | - |
| 1777396187 | 17.78° C | 93% | 1008.9 hPa | 0 mm | 0 m/s | - | - |
| 1777395887 | 17.78° C | 92% | 1009.4 hPa | 0 mm | 0.89 m/s, 64° | - | - |
| 1777395587 | 17.78° C | 92% | 1009.2 hPa | 0 mm | 0.45 m/s, 258° | - | - |
| 1777395287 | 17.78° C | 91% | 1009.4 hPa | 0 mm | 0 m/s | - | - |
| 1777394987 | 17.78° C | 92% | 1009.8 hPa | 0 mm | 0.45 m/s, 257° | - | - |
| 1777394687 | 17.78° C | 90% | 1009.7 hPa | 0 mm | 0.45 m/s, 271° | - | - |
| 1777394387 | 18.33° C | 89% | 1009.7 hPa | 0 mm | 0.45 m/s, 240° | - | - |
| 1777394087 | 18.33° C | 87% | 1009.9 hPa | 0 mm | 0.89 m/s, 184° | - | - |
| 1777393787 | 18.33° C | 88% | 1010 hPa | 0 mm | 0.89 m/s, 210° | - | - |
| 1777393487 | 18.89° C | 86% | 1010.1 hPa | 0 mm | 0.45 m/s, 295° | - | - |
| 1777393188 | 18.33° C | 88% | 1010 hPa | 0 mm | 0.89 m/s, 83° | - | - |
| 1777392887 | 18.33° C | 87% | 1009.9 hPa | 0 mm | 0.45 m/s, 277° | - | - |
| 1777392587 | 17.22° C | 91% | 1010 hPa | 0 mm | 0 m/s | - | - |
| 1777392287 | 17.22° C | 91% | 1009.7 hPa | 0 mm | 0.89 m/s, 133° | - | - |
* Rain latest hour (hover to see other rain measurements)
** Current wind speed in m/s (hover to see current wind gust speed)